Showing default

SKYSAT C4, 41771

Orbit data source: Space-Track

SKYSAT C4, 41771 is a payload satellite owned by Terra Bella (US) in SSO that was launched on Fri, 16 Sep 2016 UTC via a VEGA launch vehicle from the French Guiana (FRGUI). Payload-class satellites include a variety of spacecraft equipped with specific instruments for various scientific and technological missions. These include communications satellites like Starlink; space stations such as the ISS; scientific satellites like the Hubble; Earth observation satellites from companies like Planet Labs, Umbra, and HawkEye 360; GPS; miniature CubeSats for education and research; and military/defense satellites.

Loading next visibility...
Identifier
41771, 2016-058B
Orbit
SSO
Country
Flag of USUS
Related business
Manufacturer
SS/Loral (MDA)
Mission
Operational Commercial Imaging
Bus & Motor
SKYSAT-GEN2, Unknown motor
Mass
110 kg wet, 110 kg dry
Launch date (UTC)
2016-09-16 (9 years ago)
Launch vehicle
VEGA
Launch site
French Guiana (FRGUI)
Object type
Payload
Rocket body
Debris
Shape & HBR
Box, 1.0 m
Radar Cross Section
0.888 m², Medium (>0.1 m² and < 1m²)

Expand to show TLE details & history
Last TLE update: 8 hours ago

TLE from 8 hours ago
0 SKYSAT C4
1 41771U 16058B   25305.51002027  .00015365  00000-0  37897-3 0  9999
2 41771  96.9439 332.7389 0002879  61.5494 298.6043 15.40615598510329
Epoch: 2025-11-01T12:14Z
TLE epoch observation values (Epoch: 2025-11-01T12:14:25.751Z)
Latitude
-0.00005°
Longitude
108.09254°
Altitude
446.482 km
Speed
7.645 km/s
True Right ascension
22h 10m 57s
True Declination
0° 00' 00"
Sunlit
Object was in full shadow at epoch
Visualization orbit readout
Latitude
Unknown
Longitude
Unknown
Altitude
Unknown
Speed
Unknown
Apparent Right ascension
Unknown
Apparent Declination
Unknown
Sunlit
N/A
Visualization observer readout
Local Sidereal Time
16:13:58
Azimuth
Unknown
Elevation
Unknown
Doppler factor
Unknown
Orbital elements
Apogee altitude
443.174 km
Perigee altitude
439.247 km
Semi-major axis
6,819.347 km
Eccentricity
0.00029
Inclination
96.9439°
RAAN
332.7389°
Arg. of periapsis
61.5494°
True anomaly
298.57533°
Mean anomaly
298.6043°
Eccentric anomaly
298.58982°
Mean motion
3.85415 °/min
Orbital period
93.41 mins
BSTAR
0.00037897
Loading maneuver chart data...
Computing Atmospheric mass density...
Loading historical data...
Loading historical data...
Loading historical data...
Loading historical data...
Loading historical data...
Loading historical data...
Loading historical data...

Documentation

Showing up to 5 results
|